Find Starlink 4108

NORAD ID: 52834 Int'l Des: 2022-062 Owner: SPXS Country: US Constellation: starlink operational
LEOCIRCULAR

当前视图

正在加载3D地球...

About Starlink 4108

Starlink 4108 (NORAD 52834) is a starlink constellation satellite (v1.5) launched Jun 17, 2022 by SPXS of US. It operates in LEO, CIRCULAR orbit with a mass of 297.00 kg.

即将过境

Passes for default location (London). Set your location on the main map for personalized predictions.

高度历史

Loading altitude history...

两行轨道根数

1 52834U 22062E 26235.61801357 .00001179 00000-0 49726-4 0 9993
2 52834 53.1630 358.6342 0000965 87.4474 272.6638 15.31718188231066
Epoch: Aug 23, 2026 • Age: 14 hours

当前状态

高度 470.8 km
远地点 / 近地点 N/A
速度 7.63 km/s
星下点 19.03°N, 37.18°W
发射日期 Jun 17, 2022
运行时间 4.1 years
类型 internet

技术详情

分类 Payload
质量 297.00 kg
干质量 275.00 kg
总质量 297.00 kg
长度 0.20 m
直径 2.80 m
跨度 9.00 m
形状 Box + pan
制造商 SPXS
平台类型 Starlink
阶段状态 In Orbit
所有者/国家 SPXS/US

Most Searched